• In Sweden
  • List of Countries
  • For 7 days
  • Water Temperature
  • Satellite Maps
  • Weather Map
  • Weather Widgets
  • user-avatar
    Login

    Hourly Weather Amli

    Today, 19 October, Friday

    Time Temperature Precipitation Wind Pressure Humidity
    00:00 +28°C° 0 mm 1 mps 755 mmHg 73%
    01:00 +28°C° 0 mm 1 mps 755 mmHg 74%
    02:00 +27°C° 0 mm 1 mps 754 mmHg 74%
    03:00 +27°C° 0 mm 1 mps 754 mmHg 74%
    04:00 +27°C° 0 mm 1 mps 755 mmHg 74%
    05:00 +26°C° 0 mm 1 mps 755 mmHg 79%
    06:00 +27°C° 0 mm 1 mps 755 mmHg 75%
    07:00 +29°C° 0 mm 1 mps 755 mmHg 71%
    08:00 +30°C° 0 mm 1 mps 756 mmHg 66%
    09:00 +32°C° 0 mm 1 mps 756 mmHg 59%
    10:00 +35°C° 0 mm 2 mps 756 mmHg 51%
    11:00 +36°C° 0 mm 2 mps 755 mmHg 44%
    12:00 +37°C° 0 mm 2 mps 755 mmHg 42%
    13:00 +38°C° 0 mm 2 mps 754 mmHg 39%
    14:00 +38°C° 0 mm 2 mps 754 mmHg 37%
    15:00 +37°C° 0 mm 2 mps 754 mmHg 43%
    16:00 +36°C° 0 mm 3 mps 754 mmHg 49%
    17:00 +34°C° 0 mm 3 mps 754 mmHg 56%
    18:00 +32°C° 0 mm 2 mps 754 mmHg 57%
    19:00 +31°C° 0 mm 2 mps 754 mmHg 58%
    20:00 +30°C° 0 mm 2 mps 755 mmHg 60%
    21:00 +30°C° 0 mm 2 mps 755 mmHg 58%
    22:00 +29°C° 0 mm 2 mps 755 mmHg 57%
    23:00 +29°C° 0 mm 2 mps 755 mmHg 56%

    Tomorrow, 20 October, Saturday

    Time Temperature Precipitation Wind Pressure Humidity
    00:00 +29°C° 0 mm 2 mps 755 mmHg 55%
    01:00 +29°C° 0 mm 2 mps 755 mmHg 53%
    02:00 +29°C° 0 mm 2 mps 755 mmHg 52%
    03:00 +29°C° 0 mm 2 mps 755 mmHg 52%
    04:00 +29°C° 0 mm 2 mps 755 mmHg 51%
    05:00 +29°C° 0 mm 2 mps 755 mmHg 51%
    06:00 +29°C° 0 mm 2 mps 755 mmHg 51%
    07:00 +30°C° 0 mm 2 mps 756 mmHg 51%
    08:00 +31°C° 0 mm 2 mps 756 mmHg 51%
    09:00 +34°C° 0 mm 2 mps 756 mmHg 46%
    10:00 +36°C° 0 mm 2 mps 756 mmHg 40%
    11:00 +38°C° 0 mm 2 mps 756 mmHg 35%
    12:00 +39°C° 0 mm 2 mps 756 mmHg 34%
    13:00 +39°C° 0 mm 1 mps 755 mmHg 33%
    14:00 +40°C° 0 mm 1 mps 754 mmHg 33%
    15:00 +37°C° 0 mm 1 mps 754 mmHg 38%
    16:00 +37°C° 0 mm 2 mps 754 mmHg 43%
    17:00 +35°C° 0 mm 2 mps 754 mmHg 48%
    18:00 +34°C° 0 mm 2 mps 755 mmHg 49%
    19:00 +32°C° 0 mm 2 mps 755 mmHg 49%
    20:00 +32°C° 0 mm 2 mps 756 mmHg 49%
    21:00 +31°C° 0 mm 2 mps 756 mmHg 50%
    22:00 +31°C° 0 mm 2 mps 756 mmHg 50%
    23:00 +30°C° 0 mm 1 mps 756 mmHg 50%

    Day after tomorrow, 21 October, Sunday

    Time Temperature Precipitation Wind Pressure Humidity
    00:00 +30°C° 0 mm 1 mps 756 mmHg 50%
    01:00 +30°C° 0 mm 2 mps 755 mmHg 49%
    02:00 +30°C° 0 mm 2 mps 755 mmHg 48%
    03:00 +30°C° 0 mm 1 mps 755 mmHg 47%
    04:00 +30°C° 0 mm 1 mps 755 mmHg 47%
    05:00 +30°C° 0 mm 1 mps 755 mmHg 46%
    06:00 +30°C° 0 mm 1 mps 756 mmHg 48%
    07:00 +31°C° 0 mm 1 mps 756 mmHg 49%
    08:00 +31°C° 0 mm 2 mps 757 mmHg 51%
    09:00 +34°C° 0 mm 2 mps 757 mmHg 46%
    10:00 +35°C° 0 mm 1 mps 757 mmHg 41%
    11:00 +39°C° 0 mm 1 mps 757 mmHg 36%
    12:00 +39°C° 0 mm 1 mps 756 mmHg 36%
    13:00 +39°C° 0 mm 1 mps 755 mmHg 36%
    14:00 +39°C° 0 mm 1 mps 755 mmHg 36%
    15:00 +37°C° 0 mm 1 mps 755 mmHg 41%
    16:00 +36°C° 0 mm 2 mps 755 mmHg 46%
    17:00 +35°C° 0 mm 2 mps 755 mmHg 50%
    18:00 +34°C° 0 mm 2 mps 755 mmHg 50%
    19:00 +32°C° 0 mm 2 mps 756 mmHg 51%
    20:00 +32°C° 0 mm 1 mps 756 mmHg 51%
    21:00 +31°C° 0 mm 1 mps 756 mmHg 50%
    22:00 +31°C° 0 mm 1 mps 756 mmHg 50%
    23:00 +31°C° 0 mm 1 mps 756 mmHg 50%

    22 October, Monday

    Time Temperature Precipitation Wind Pressure Humidity
    00:00 +30°C° 0 mm 1 mps 756 mmHg 50%
    01:00 +30°C° 0 mm 1 mps 756 mmHg 49%
    02:00 +30°C° 0 mm 1 mps 755 mmHg 49%
    03:00 +29°C° 0 mm 2 mps 755 mmHg 49%
    04:00 +29°C° 0 mm 2 mps 755 mmHg 50%
    05:00 +29°C° 0 mm 2 mps 755 mmHg 50%
    06:00 +30°C° 0 mm 1 mps 756 mmHg 49%
    07:00 +31°C° 0 mm 1 mps 756 mmHg 49%
    08:00 +32°C° 0 mm 1 mps 757 mmHg 48%
    09:00 +34°C° 0 mm 1 mps 757 mmHg 43%
    10:00 +36°C° 0 mm 1 mps 757 mmHg 37%
    11:00 +39°C° 0 mm 1 mps 757 mmHg 32%
    12:00 +39°C° 0 mm 1 mps 756 mmHg 31%
    13:00 +40°C° 0 mm 2 mps 755 mmHg 30%
    14:00 +40°C° 0 mm 2 mps 754 mmHg 29%
    15:00 +38°C° 0 mm 2 mps 754 mmHg 35%
    16:00 +36°C° 0 mm 3 mps 754 mmHg 40%
    17:00 +35°C° 0 mm 3 mps 754 mmHg 46%
    18:00 +32°C° 0 mm 2 mps 755 mmHg 45%
    19:00 +31°C° 0 mm 2 mps 755 mmHg 44%
    20:00 +30°C° 0 mm 1 mps 756 mmHg 44%
    21:00 +30°C° 0 mm 1 mps 756 mmHg 43%
    22:00 +29°C° 0 mm 1 mps 756 mmHg 43%
    23:00 +29°C° 0 mm 1 mps 756 mmHg 43%

    23 October, Tuesday

    Time Temperature Precipitation Wind Pressure Humidity
    00:00 +28°C° 0 mm 1 mps 755 mmHg 42%
    01:00 +28°C° 0 mm 1 mps 755 mmHg 42%
    02:00 +28°C° 0 mm 1 mps 754 mmHg 41%
    03:00 +28°C° 0 mm 1 mps 755 mmHg 40%
    04:00 +27°C° 0 mm 1 mps 755 mmHg 40%
    05:00 +27°C° 0 mm 1 mps 755 mmHg 39%
    06:00 +28°C° 0 mm 1 mps 755 mmHg 40%
    07:00 +29°C° 0 mm 2 mps 756 mmHg 41%
    08:00 +30°C° 0 mm 2 mps 756 mmHg 41%
    09:00 +33°C° 0 mm 1 mps 756 mmHg 36%
    10:00 +35°C° 0 mm 1 mps 756 mmHg 31%
    11:00 +39°C° 0 mm 1 mps 756 mmHg 25%
    12:00 +39°C° 0 mm 1 mps 755 mmHg 25%
    13:00 +39°C° 0 mm 2 mps 755 mmHg 24%
    14:00 +40°C° 0 mm 2 mps 754 mmHg 23%
    15:00 +38°C° 0 mm 2 mps 754 mmHg 29%
    16:00 +36°C° 0 mm 3 mps 754 mmHg 35%
    17:00 +34°C° 0 mm 3 mps 754 mmHg 41%
    18:00 +32°C° 0 mm 2 mps 754 mmHg 41%
    19:00 +31°C° 0 mm 2 mps 755 mmHg 41%
    20:00 +29°C° 0 mm 1 mps 755 mmHg 40%
    21:00 +29°C° 0 mm 1 mps 755 mmHg 40%
    22:00 +28°C° 0 mm 2 mps 755 mmHg 40%
    23:00 +28°C° 0 mm 2 mps 755 mmHg 40%

    24 October, Wednesday

    Time Temperature Precipitation Wind Pressure Humidity
    00:00 +28°C° 0 mm 1 mps 755 mmHg 41%
    01:00 +27°C° 0 mm 1 mps 754 mmHg 43%
    02:00 +27°C° 0 mm 1 mps 754 mmHg 44%
    03:00 +27°C° 0 mm 1 mps 754 mmHg 44%
    04:00 +26°C° 0 mm 1 mps 754 mmHg 43%
    05:00 +26°C° 0 mm 1 mps 754 mmHg 43%
    06:00 +28°C° 0 mm 1 mps 755 mmHg 43%
    07:00 +29°C° 0 mm 1 mps 756 mmHg 42%
    08:00 +30°C° 0 mm 1 mps 756 mmHg 42%
    09:00 +33°C° 0 mm 1 mps 756 mmHg 37%
    10:00 +35°C° 0 mm 1 mps 756 mmHg 32%
    11:00 +36°C° 0 mm 0 mps 756 mmHg 27%
    12:00 +39°C° 0 mm 1 mps 755 mmHg 27%
    13:00 +39°C° 0 mm 2 mps 754 mmHg 27%
    14:00 +39°C° 0 mm 2 mps 753 mmHg 26%
    15:00 +37°C° 0 mm 2 mps 753 mmHg 34%
    16:00 +35°C° 0 mm 2 mps 753 mmHg 42%
    17:00 +32°C° 0 mm 2 mps 753 mmHg 49%
    18:00 +31°C° 0 mm 2 mps 754 mmHg 50%
    19:00 +29°C° 0 mm 2 mps 754 mmHg 51%
    20:00 +28°C° 0 mm 1 mps 755 mmHg 52%
    21:00 +28°C° 0 mm 1 mps 755 mmHg 53%
    22:00 +28°C° 0 mm 1 mps 755 mmHg 53%
    23:00 +27°C° 0 mm 2 mps 755 mmHg 54%
    Show more